This demonstration page uses our WeatherBlox Daily Observations layout. Learn more.

Left ArrowRight Arrow

39.01783, -85.05884

Hourly Observations for February 29, 2016

Temp ( °F °C ) Dew Point ( °F °C ) Humidity (%) Winds ( mph kmh ) Pressure ( in mb ) Visibility ( mi km ) Precip ( " mm )
12:52 am 00:52 Cloudy with Heavy Rain 53 11.7 47 8.3 80 80 W 25 41 29.67 1005 3 5 0.02 0.51
1:52 am 01:52 Cloudy with Light Rain 48 8.9 46 7.8 93 93 W 18 30 29.74 1007 6 10 0.15 3.81
2:52 am 02:52 Cloudy 48 8.9 41 5 77 77 WNW 25 41 29.76 1008 10 16 0.04 1.02
3:52 am 03:52 Cloudy 43 6.1 36 2 75 75 WNW 21 33 29.82 1010 10 16 N/A
4:52 am 04:52 Cloudy 41 5 36 2 81 81 W 24 39 29.87 1011 10 16 N/A
5:52 am 05:52 Cloudy 41 5 36 2 81 81 W 10 17 29.91 1013 10 16 N/A
6:52 am 06:52 Cloudy 40 4.4 34 1 79 79 W 13 20 29.94 1014 10 16 N/A
7:52 am 07:52 Cloudy 38 3.3 32 undefined 79 79 W 13 20 29.98 1015 10 16 N/A
8:52 am 08:52 Cloudy 39 3.9 32 undefined 76 76 WSW 12 19 30.01 1016 10 16 N/A
9:52 am 09:52 Mostly Cloudy 40 4.4 31 -0.6 70 70 WNW 13 20 30.03 1017 10 16 N/A
10:52 am 10:52 Mostly Cloudy 43 6.1 33 0.6 68 68 W 13 20 30.06 1018 10 16 N/A
11:39 am 11:39 Partly Cloudy 45 7 34 1 66 66 WSW 10 17 30.09 1019 10 16 N/A
11:52 am 11:52 Partly Cloudy 46 7.8 34 1.1 63 63 W 12 19 30.06 1018 10 16 N/A
12:52 pm 12:52 Partly Cloudy 49 9.4 33 0.6 55 55 W 14 22 30.04 1017 10 16 N/A
1:52 pm 13:52 Mostly Sunny 52 11.1 33 0.6 49 49 SSW 13 20 30.01 1016 10 16 N/A
2:52 pm 14:52 Mostly Sunny 53 11.7 29 -1.7 40 40 WSW 13 20 30.01 1016 10 16 N/A
3:52 pm 15:52 Mostly Sunny 55 12.8 30 -1.1 38 38 SW 13 20 30.00 1016 10 16 N/A
4:52 pm 16:52 Mostly Sunny 55 12.8 27 -2.8 34 34 SW 9 15 30.00 1016 10 16 N/A
5:52 pm 17:52 Mostly Sunny 54 12.2 30 -1.1 40 40 SSW 9 15 30.01 1016 10 16 N/A
6:52 pm 18:52 Clear 51 10.6 28 -2.2 41 41 SW 5 7 30.02 1017 10 16 N/A
7:52 pm 19:52 Clear 45 7.2 30 -1.1 56 56 S 5 7 30.03 1017 10 16 N/A
8:52 pm 20:52 Clear 47 8.3 30 -1.1 52 52 SSW 7 11 30.02 1017 10 16 N/A
9:52 pm 21:52 Clear 47 8.3 30 -1.1 52 52 SSW 6 9 30.02 1017 10 16 N/A
10:52 pm 22:52 Clear 44 6.7 30 -1.1 58 58 S 3 6 30.02 1017 10 16 N/A
11:52 pm 23:52 Clear 38 3.3 33 0.6 83 83 S 5 7 30.01 1016 10 16 N/A

Powered by AerisWeather